This demonstration page uses our WeatherBlox Daily Observations layout. Learn more.

Left ArrowRight Arrow

44.89941, -97.11507

Hourly Observations for November 5, 2019

Temp ( °F °C ) Dew Point ( °F °C ) Humidity (%) Winds ( mph kmh ) Pressure ( in mb ) Visibility ( mi km ) Precip ( " mm )
12:53 am 00:53 Clear 20 -6.7 13 -10.6 74 74 NW 9 15 30.29 1026 10 16 0.00 0.00
1:53 am 01:53 Clear 19 -7.2 13 -10.6 77 77 WNW 7 11 30.29 1026 10 16 0.00 0.00
2:53 am 02:53 Clear 15 -9.4 12 -11.1 88 88 W 7 11 30.30 1026 10 16 0.00 0.00
3:53 am 03:53 Clear 14 -10 12 -11.1 92 92 W 7 11 30.31 1026 10 16 0.00 0.00
4:53 am 04:53 Clear 14 -10 12 -11.1 92 92 W 7 11 30.32 1027 10 16 0.00 0.00
5:53 am 05:53 Clear 15 -9.4 11 -11.7 84 84 WNW 3 6 30.32 1027 10 16 0.00 0.00
6:53 am 06:53 Clear 13 -10.6 10 -12.2 88 88 WSW 5 7 30.33 1027 10 16 0.00 0.00
7:53 am 07:53 Sunny 18 -7.8 14 -10 84 84 WSW 6 9 30.33 1027 10 16 0.00 0.00
8:53 am 08:53 Partly Cloudy 22 -5.6 17 -8.3 82 82 SW 6 9 30.34 1028 10 16 0.00 0.00
9:53 am 09:53 Mostly Cloudy 24 -4.4 14 -10 65 65 SSW 5 7 30.33 1027 10 16 0.00 0.00
10:53 am 10:53 Cloudy 25 -3.9 15 -9.4 66 66 SSW 6 9 30.32 1027 10 16 0.00 0.00
11:53 am 11:53 Cloudy 27 -2.8 16 -8.9 63 63 SSE 7 11 30.31 1027 10 16 0.00 0.00
12:53 pm 12:53 Cloudy 27 -2.8 16 -8.9 63 63 S 5 7 30.29 1026 10 16 0.00 0.00
1:53 pm 13:53 Cloudy with Light Snow 26 -3.3 19 -7.2 75 75 SSW 9 15 30.28 1026 4 6 0.00 0.00
2:05 pm 14:05 Cloudy with Light Snow 26 -3.3 20 -6.7 78 78 SSW 8 13 30.31 1027 2 3 0.00 0.00
2:08 pm 14:08 Cloudy with Light Snow 26 -3.3 21 -6.1 81 81 SSW 9 15 30.31 1027 1 2 0.00 0.00
2:29 pm 14:29 Cloudy with Light Snow 25 -3.9 22 -5.6 88 88 S 7 11 30.31 1026 2 3 0.00 0.00
2:36 pm 14:36 Cloudy with Light Snow 25 -3.9 22 -5.6 88 88 S 8 13 30.31 1026 2 3 0.00 0.00
2:44 pm 14:44 Cloudy with Light Snow 25 -3.9 21 -6.1 85 85 SSE 8 13 30.31 1026 3 5 0.00 0.00
2:53 pm 14:53 Cloudy with Light Snow 25 -3.9 22 -5.6 88 88 S 5 7 30.29 1026 4 6 0.00 0.00
3:07 pm 15:07 Cloudy with Light Snow 25 -3.9 22 -5.6 88 88 S 6 9 30.31 1026 7 11 0.00 0.00
3:14 pm 15:14 Cloudy 25 -3.9 21 -6.1 85 85 S 5 7 30.31 1026 9 14 0.00 0.00
3:48 pm 15:48 Cloudy 25 -4 21 -6 86 86 SSE 5 7 30.30 1026 10 16 0.00 0.00
3:53 pm 15:53 Cloudy 25 -3.9 21 -6.1 85 85 S 7 11 30.28 1025 10 16 0.00 0.00
4:05 pm 16:05 Cloudy 25 -3.9 21 -6.1 85 85 S 7 11 30.30 1026 10 16 0.00 0.00
4:53 pm 16:53 Cloudy 25 -3.9 21 -6.1 85 85 SSE 7 11 30.27 1025 10 16 0.00 0.00
5:53 pm 17:53 Cloudy 25 -3.9 22 -5.6 88 88 S 8 13 30.28 1025 10 16 0.00 0.00
6:53 pm 18:53 Cloudy 25 -3.9 22 -5.6 88 88 SE 6 9 30.29 1026 10 16 0.00 0.00
7:48 pm 19:48 Cloudy 25 -4 21 -6 86 86 SSE 5 7 30.30 1026 10 16 0.00 0.00
7:53 pm 19:53 Cloudy 25 -3.9 22 -5.6 88 88 SE 5 7 30.27 1025 10 16 0.00 0.00
8:53 pm 20:53 Clear 24 -4.4 22 -5.6 91 91 SSE 5 7 30.27 1025 10 16 0.00 0.00
9:53 pm 21:53 Cloudy 24 -4.4 22 -5.6 91 91 Calm 30.28 1026 10 16 0.00 0.00
10:46 pm 22:46 Mostly Cloudy 25 -3.9 23 -5 92 92 NE 3 6 30.31 1026 10 16 0.00 0.00
10:53 pm 22:53 Mostly Cloudy 24 -4.4 22 -5.6 91 91 NE 5 7 30.27 1025 10 16 0.00 0.00
11:53 pm 23:53 Mostly Cloudy 25 -3.9 22 -5.6 88 88 NE 3 6 30.27 1025 10 16 0.00 0.00

Powered by AerisWeather